Theta_e
326 327 328 328 328 327 326 327 327 327 327 328 328 328 327 326 326 326 327 328 329 329 329 329 328 325 323 325 327 328 329 328 329 331 332 331 330 329 329 328 326 325 324 323 322 321 319 318 317 314 311 309 308 308 308 307 307 306 306 305 305 305 305 305 305 305 306 306 306 307 307 307 307 307 307 307 307 308 308 307 307 307 308 308 308
326 327 328 329 328 327 327 327 327 326 326 327 328 328 328 328 328 328 327 328 328 329 329 329 329 328 326 326 327 328 329 329 329 331 332 331 329 328 328 328 326 325 324 323 322 321 320 319 317 314 311 310 309 309 308 308 308 307 307 306 305 305 305 305 305 305 305 306 306 307 307 307 307 307 307 307 307 307 308 308 307 307 307 307 308
326 327 328 329 328 328 327 327 326 325 325 326 326 327 328 327 327 327 326 326 327 327 328 328 327 328 328 328 328 328 328 329 329 330 331 329 328 328 328 328 325 325 324 323 322 322 321 320 319 316 312 310 310 310 310 310 309 309 308 307 307 306 305 305 305 305 305 306 306 306 306 307 307 307 307 307 307 307 307 307 307 307 307 307 307
326 326 328 329 329 329 328 328 327 326 325 324 325 326 327 326 326 326 326 326 326 327 327 327 325 326 326 326 328 328 328 328 328 328 328 327 327 327 328 327 325 325 324 324 322 323 322 321 322 321 317 314 314 314 314 314 313 312 311 309 308 307 306 306 305 305 305 306 306 306 306 306 307 307 307 307 307 307 307 308 307 308 307 307 307
326 326 328 330 329 329 329 328 328 327 325 324 323 324 326 326 327 326 326 325 326 327 326 326 326 326 325 326 328 328 328 327 327 327 326 327 327 327 328 327 326 325 325 324 323 324 323 322 322 321 322 322 322 321 320 319 317 315 314 312 309 308 307 307 306 306 305 305 305 306 306 306 306 307 307 307 307 307 307 307 308 308 308 307 307
328 328 329 330 330 329 329 328 328 326 325 325 323 323 326 327 327 326 326 326 326 326 326 326 327 327 326 327 328 328 327 326 327 327 326 328 328 327 327 327 326 326 325 324 324 324 324 323 321 320 322 323 324 324 323 323 322 318 314 313 310 309 308 307 307 307 306 306 305 305 305 306 306 306 307 307 307 307 307 308 308 308 308 308 308
330 329 329 330 330 329 329 328 327 327 326 325 323 323 325 326 326 325 325 326 326 326 325 325 327 328 328 328 328 327 326 326 326 326 327 328 329 328 328 328 327 326 325 325 324 324 324 324 322 320 321 322 324 326 324 325 326 320 314 312 311 310 309 307 306 306 306 306 306 305 305 305 305 306 306 306 306 306 307 307 308 308 308 308 308
329 329 328 329 329 329 329 328 327 327 326 324 322 323 324 325 325 324 325 326 326 326 325 326 327 328 328 328 328 327 326 325 325 325 326 327 328 329 329 328 327 326 325 325 325 324 324 325 322 321 321 321 323 323 323 326 326 320 317 316 315 313 312 310 309 308 307 307 306 306 305 305 305 305 305 305 306 306 307 307 307 308 308 308 308
329 328 328 329 329 329 329 328 328 327 327 325 324 324 324 325 325 325 326 326 326 326 326 326 327 327 327 327 327 326 326 325 325 325 325 325 328 330 329 328 327 326 326 326 325 324 325 325 324 323 322 321 320 319 320 324 322 320 322 322 319 317 317 316 315 313 312 310 308 306 306 305 305 305 305 306 306 306 306 307 307 307 308 308 308
328 328 328 329 329 329 329 328 328 327 327 326 325 325 325 325 325 325 326 326 326 326 326 326 326 326 326 326 327 326 325 325 325 325 325 326 329 330 329 328 327 326 326 326 325 324 325 325 325 324 323 321 321 321 321 321 321 322 324 325 323 322 321 320 320 319 318 316 314 312 310 308 307 306 305 305 306 306 307 307 307 307 307 307 308
327 327 327 328 328 329 329 328 328 327 327 326 326 326 326 325 325 325 325 326 325 326 326 326 326 326 326 326 326 326 325 326 326 326 326 327 328 328 328 328 328 327 326 326 325 325 325 326 325 325 324 322 321 322 322 321 321 323 325 326 325 325 325 324 324 324 324 323 322 321 319 316 313 310 308 307 307 307 308 308 308 308 308 307 308
326 326 326 326 327 328 328 328 328 327 327 327 326 326 326 326 326 325 324 325 325 325 326 326 326 327 327 327 327 326 326 326 326 326 327 327 326 327 328 329 328 328 327 326 325 325 326 327 326 326 325 324 322 322 323 323 323 324 325 326 326 326 326 327 327 326 327 327 327 325 324 322 319 315 313 311 310 309 309 309 309 309 308 308 308
324 325 326 325 326 327 327 328 327 327 327 326 326 327 327 326 326 325 325 325 324 324 325 326 326 327 328 328 328 328 327 327 327 327 327 327 326 326 328 328 328 328 328 327 326 326 327 326 325 326 326 325 324 324 324 324 324 325 326 326 326 326 327 327 327 326 326 327 327 327 326 325 324 321 317 315 313 312 312 311 311 311 310 309 309
324 324 325 325 325 325 326 327 327 326 326 326 326 327 327 326 326 325 324 324 323 323 325 327 327 327 327 328 328 328 328 328 328 328 328 327 327 327 328 328 327 328 328 328 327 326 326 326 325 326 325 325 325 325 325 324 325 326 326 326 326 326 327 327 326 325 324 325 326 327 327 326 326 325 322 320 317 315 315 315 314 313 312 311 310
323 324 325 326 325 325 325 326 327 327 326 326 326 326 327 327 326 325 324 323 323 324 325 327 327 327 327 327 327 327 327 328 327 328 328 327 327 327 327 327 327 327 327 327 327 326 326 326 325 325 324 325 325 324 324 324 325 325 325 326 326 326 326 324 323 323 322 323 325 325 325 325 325 326 325 325 322 320 319 318 318 317 316 314 312
322 324 325 325 324 324 324 324 325 326 326 326 326 326 327 327 327 325 325 324 323 324 325 326 326 327 327 327 327 326 326 327 326 327 327 326 327 327 327 327 326 326 326 326 326 326 326 326 326 325 324 325 325 324 323 324 324 325 325 325 325 325 324 322 322 323 322 323 324 324 324 324 325 325 325 326 325 324 323 321 320 320 319 318 317
320 322 322 322 321 322 323 323 324 324 323 325 325 326 326 326 326 326 325 325 324 324 325 326 326 327 326 326 326 326 326 326 326 326 326 325 326 327 326 326 326 326 326 326 326 326 326 326 326 325 325 326 326 325 325 324 324 324 324 325 325 324 323 322 323 324 323 322 323 325 325 325 324 324 324 325 325 325 325 324 322 321 322 322 322
319 318 316 318 318 319 321 322 322 323 323 324 325 325 326 326 325 325 326 325 325 325 325 326 326 327 326 325 325 326 325 325 325 325 325 325 326 326 326 325 326 326 326 326 325 325 325 325 325 325 325 325 325 325 325 325 324 324 324 325 324 323 322 322 323 324 322 321 322 323 325 325 323 323 324 325 325 325 326 326 324 323 323 324 324
317 315 313 316 317 317 320 322 323 323 323 324 324 324 325 325 325 326 326 326 326 326 325 325 326 326 326 325 324 325 325 324 324 324 325 325 325 325 326 326 326 325 325 324 324 325 325 324 324 323 323 323 323 324 324 324 324 324 324 324 323 323 323 323 323 323 322 322 322 323 324 324 324 324 325 324 324 325 325 326 326 325 325 325 325
316 313 312 315 317 317 320 322 322 324 325 325 325 325 325 324 325 326 326 326 326 326 325 324 325 326 326 325 325 325 325 324 324 323 324 326 325 325 325 325 325 324 323 323 323 324 323 322 322 322 321 321 322 323 323 323 324 324 323 323 322 322 322 322 322 321 321 321 321 320 321 321 321 320 320 321 322 323 324 324 325 325 325 325 325
315 313 312 315 317 316 317 319 320 322 324 324 324 324 325 325 324 324 325 325 325 325 325 324 324 325 326 325 325 325 325 325 325 324 324 324 325 324 324 324 323 323 323 323 322 322 321 321 321 321 321 321 321 322 322 322 323 322 322 322 322 322 321 321 320 319 318 317 316 315 315 315 315 315 315 315 316 319 321 322 323 323 323 324 324
315 315 315 317 318 318 317 318 318 319 319 320 319 320 322 323 322 322 324 325 324 324 324 324 324 325 325 325 324 324 324 325 325 325 324 323 324 324 324 323 323 323 323 322 321 321 321 321 321 321 321 321 321 321 321 322 322 322 322 322 322 321 320 320 319 317 315 312 310 309 309 309 309 310 310 311 312 314 316 317 318 319 319 319 320
317 317 317 318 320 320 320 319 318 317 316 317 317 317 319 321 321 321 323 324 324 324 324 323 323 324 325 325 324 324 324 325 325 325 324 323 324 324 323 323 322 321 320 320 320 320 320 320 321 321 321 320 320 320 320 321 322 322 323 323 321 320 319 317 316 313 308 305 304 304 305 305 305 305 305 306 307 309 311 312 312 313 312 312 311
318 318 318 319 321 322 321 320 319 318 317 317 319 319 319 320 320 320 321 322 323 323 323 323 322 323 324 324 325 325 324 324 324 324 324 323 323 323 322 322 320 319 319 319 320 320 320 320 320 319 320 319 320 320 319 320 320 320 319 318 316 313 311 309 307 306 305 305 306 307 307 307 307 306 306 305 305 305 306 307 308 309 309 309 309
318 318 317 318 321 322 322 321 320 320 318 316 318 319 319 318 318 318 319 321 322 322 322 322 322 322 323 323 324 324 324 324 324 324 324 323 323 322 321 319 318 318 318 318 319 319 318 318 318 319 319 319 319 319 318 318 316 313 310 307 306 306 306 306 306 307 308 309 309 309 309 309 309 309 308 308 307 307 306 306 306 306 306 307 307
317 317 316 316 319 321 322 321 321 319 316 314 316 318 317 317 316 317 319 320 322 322 322 323 323 323 323 323 323 323 323 324 324 324 323 323 322 321 319 317 317 317 317 317 317 317 317 318 318 318 318 318 318 317 315 312 309 306 305 305 306 307 308 309 309 310 310 310 310 310 310 310 309 309 309 308 308 308 307 307 306 306 306 306 306
317 318 317 316 317 319 321 321 320 316 312 312 316 317 316 316 317 317 319 321 322 322 323 323 323 323 323 323 323 323 323 323 323 323 323 322 321 320 319 317 316 315 315 316 315 315 316 317 318 317 314 312 311 310 307 306 306 306 307 308 309 309 310 310 309 309 309 309 309 309 309 309 308 308 308 308 308 308 308 307 307 307 306 306 306
315 317 317 317 318 319 320 320 318 314 309 311 315 317 316 316 318 319 320 321 322 322 322 322 322 323 322 323 323 323 323 322 322 322 322 321 320 319 319 317 315 313 313 313 313 313 314 314 314 313 309 305 304 305 305 306 307 308 309 309 309 310 310 310 309 308 307 307 307 307 307 306 306 306 305 305 306 306 307 307 307 307 307 307 306
309 313 316 317 318 318 319 319 316 312 308 309 313 315 316 317 319 320 320 321 321 321 321 321 321 322 323 322 322 322 321 321 321 321 321 320 319 318 317 316 314 313 312 312 311 310 311 311 310 309 307 304 305 306 308 308 309 309 309 309 310 310 310 309 309 308 306 304 304 304 305 304 304 303 303 302 302 302 303 303 304 305 306 307 307
306 309 312 314 314 314 316 316 313 310 307 306 309 313 315 318 320 320 319 319 320 320 320 319 319 321 322 322 322 322 320 319 320 320 319 319 318 318 317 316 315 315 313 312 311 308 308 309 309 308 306 306 307 308 309 309 309 310 310 310 310 310 309 309 309 308 306 305 304 304 303 303 303 302 302 301 301 301 301 301 301 301 302 303 304
306 306 308 309 308 308 310 312 310 308 306 305 306 308 312 316 317 317 317 317 317 317 318 318 317 318 321 321 322 321 321 319 319 319 319 318 318 317 317 316 316 315 314 313 313 310 307 306 307 306 306 307 308 310 310 310 310 310 310 309 309 309 309 309 310 309 308 307 307 306 305 304 303 302 302 301 301 301 300 300 300 300 300 301 301
307 305 306 306 305 305 307 308 308 307 306 305 304 305 308 312 313 312 311 311 311 312 315 316 316 316 319 320 320 319 320 319 317 317 317 318 318 318 317 317 316 316 316 314 313 312 308 306 306 306 307 308 309 310 311 310 310 309 309 309 308 309 309 309 310 310 309 309 309 309 308 307 305 303 302 302 302 301 301 301 301 300 300 300 300
307 305 306 305 305 305 305 306 307 306 305 304 304 304 306 308 309 308 307 307 306 307 310 314 316 316 317 318 318 317 317 316 315 315 315 315 316 317 318 318 317 317 317 315 314 312 309 306 306 307 308 309 310 310 310 309 309 309 309 309 308 308 309 309 309 310 310 310 309 309 309 309 308 305 303 303 302 301 301 301 301 301 300 301 300
306 304 305 305 305 305 306 306 305 305 304 304 304 304 305 306 307 307 308 307 307 307 307 310 313 314 315 317 317 317 316 316 316 316 315 314 314 315 316 317 317 317 317 316 314 313 312 308 307 307 308 309 309 309 310 310 310 310 309 309 309 309 309 309 309 310 310 310 309 309 309 309 309 307 305 303 303 302 301 301 301 300 300 301 301
305 304 304 304 305 306 306 305 304 304 305 305 306 306 307 308 308 309 309 309 309 309 308 308 309 310 312 314 316 317 317 316 316 315 314 313 313 314 314 314 315 316 318 317 314 313 313 311 308 307 308 309 309 309 310 310 310 310 310 310 309 309 309 309 309 310 310 310 310 310 309 310 310 308 305 304 303 302 301 301 301 300 300 300 301
304 304 304 303 304 305 305 305 304 305 306 307 308 309 309 310 309 309 310 309 309 309 309 309 309 309 309 310 312 313 314 313 313 312 312 313 313 313 313 313 314 316 318 316 313 313 313 311 310 308 307 309 309 309 310 310 310 310 310 310 310 310 310 310 310 310 310 310 310 310 310 310 310 308 306 304 303 302 301 301 300 300 300 300 300
304 304 305 304 305 305 304 305 306 306 307 308 309 310 310 310 309 309 309 310 310 310 311 311 310 310 310 309 310 311 311 312 312 313 313 313 313 313 313 313 314 316 316 315 313 313 313 312 310 309 309 309 309 309 310 310 310 310 310 310 310 310 310 310 310 310 310 310 310 310 310 310 310 308 306 304 303 302 301 301 300 300 300 300 300
304 304 305 305 305 305 305 306 307 307 308 309 309 310 310 310 309 310 309 310 311 313 313 314 313 313 312 312 311 311 312 312 312 313 314 313 313 313 314 314 313 313 314 313 313 313 314 313 310 309 310 310 310 310 310 309 310 310 310 310 310 310 310 310 310 310 310 310 310 310 310 310 310 309 306 304 303 302 301 300 300 300 300 300 300
305 303 305 305 305 305 306 307 308 309 309 309 309 309 309 309 309 309 309 310 311 313 314 315 315 314 314 314 313 313 313 312 312 313 314 314 314 314 314 314 314 313 313 314 314 314 314 313 311 310 310 310 310 311 310 310 310 310 310 310 310 310 310 310 310 310 310 310 310 310 310 310 310 308 305 303 302 300 300 300 300 300 300 300 300
308 305 306 306 307 307 308 308 309 309 309 309 309 309 308 308 308 309 309 310 311 313 314 315 314 314 314 314 314 314 315 314 313 313 314 314 314 314 315 315 314 314 314 314 314 314 314 314 312 311 311 311 311 311 310 310 310 310 311 311 311 310 310 310 310 310 310 310 310 310 310 310 309 307 304 302 300 299 299 299 300 300 300 300 300
312 312 311 311 311 311 311 312 313 313 313 312 312 311 310 310 309 310 311 312 313 314 314 315 315 315 316 315 315 315 315 315 315 315 315 314 315 315 315 315 315 315 314 314 314 314 314 314 313 312 312 311 311 311 310 310 311 311 311 311 311 311 310 310 310 310 311 311 311 311 311 310 307 304 302 300 299 299 299 299 299 300 300 300 300
316 316 316 316 316 315 314 315 316 316 316 316 316 316 315 315 314 314 315 316 316 316 316 316 317 317 317 317 317 317 316 316 315 315 315 315 316 316 315 315 314 315 315 314 314 314 314 314 314 313 312 312 312 311 311 311 311 311 311 311 311 311 310 311 311 311 311 311 311 311 310 308 305 302 300 299 298 298 298 298 299 299 299 300 300
318 316 317 318 317 316 316 316 317 317 317 317 317 317 317 317 317 317 317 318 318 317 317 317 318 318 318 318 318 318 317 316 316 315 315 315 316 316 316 316 315 314 315 315 315 314 314 314 314 314 313 313 312 312 311 311 312 312 311 311 311 311 311 311 311 311 311 311 311 310 308 305 302 300 299 298 298 298 298 298 298 298 299 299 299
320 318 318 318 318 318 317 316 316 316 317 317 317 317 317 318 317 318 318 318 318 318 318 318 318 318 318 318 318 318 318 317 317 316 316 316 315 316 316 317 316 315 315 314 314 314 314 314 314 314 314 314 313 313 312 313 312 312 311 311 311 311 311 311 311 311 311 311 310 308 305 302 300 299 299 298 298 298 297 297 297 298 298 298 298
320 320 319 319 319 319 317 316 316 317 317 317 317 317 317 318 318 318 318 318 319 319 319 318 318 319 319 318 318 318 318 318 318 317 317 317 317 316 316 316 317 317 316 315 314 314 313 313 314 314 314 314 314 314 313 313 313 312 312 312 312 312 312 311 311 311 310 309 307 304 302 300 299 299 298 298 298 297 297 297 297 297 297 296 296
320 320 319 320 320 319 318 318 318 318 318 317 317 318 318 318 318 318 318 319 319 319 319 318 319 319 319 318 318 318 318 318 317 316 317 317 318 317 317 316 316 317 317 317 316 315 313 313 314 314 314 314 314 314 313 313 313 312 312 312 312 312 311 311 310 310 308 306 304 301 300 299 299 299 298 298 298 297 297 296 296 296 296 296 296
320 320 320 320 320 320 320 320 319 319 319 319 318 318 318 318 318 318 318 319 319 319 319 319 319 319 319 319 318 318 318 317 317 316 316 316 318 318 317 317 316 316 317 318 317 315 314 314 315 314 314 313 313 313 313 313 313 312 312 312 312 311 311 310 309 307 305 303 301 300 299 299 299 298 298 298 297 297 296 296 296 296 296 296 296
320 320 320 319 319 320 319 319 319 319 319 319 319 319 319 319 319 319 319 318 318 318 318 318 318 318 319 319 319 318 318 317 317 316 316 316 317 317 317 316 316 316 317 318 318 317 316 315 314 314 313 313 313 313 313 313 313 312 312 312 311 311 309 307 305 303 302 300 300 299 299 299 299 298 298 297 297 296 295 295 295 295 296 296 295
318 318 318 318 318 318 317 317 317 317 316 316 317 317 317 318 318 319 319 319 319 318 318 319 318 318 318 318 318 318 318 317 317 317 316 316 316 317 316 316 316 316 317 317 316 316 316 315 314 314 313 314 314 314 314 313 312 312 312 311 310 308 305 303 302 301 300 300 300 299 299 299 299 298 298 297 296 295 295 295 295 295 295 295 295
317 317 317 317 317 316 315 315 315 314 314 314 314 314 314 314 315 315 316 316 317 317 318 318 317 317 318 318 318 318 317 317 317 317 317 317 316 316 316 316 316 317 317 316 314 313 314 314 314 314 314 314 314 314 313 312 312 311 310 309 306 304 303 302 301 300 300 300 299 299 299 299 298 298 297 296 295 295 295 295 295 295 295 295 295
317 317 316 316 316 315 315 314 314 313 312 312 313 313 312 313 313 313 313 313 313 314 314 314 314 314 315 315 316 316 316 316 316 317 317 317 316 316 316 316 316 317 316 314 313 313 313 314 314 314 314 314 313 313 312 311 310 309 307 305 304 303 302 302 301 300 300 299 299 299 299 298 298 297 296 295 295 295 295 295 295 295 295 295 295
Wind_Speed
6 6 6 6 6 5 3 4 5 4 5 6 6 6 7 7 7 7 6 7 7 7 7 7 7 8 11 12 11 10 9 8 7 5 4 4 4 3 1 0 0 1 1 2 3 2 1 2 2 3 4 4 4 3 2 2 1 1 1 1 1 1 0 0 1 2 2 2 3 3 4 5 5 6 6 6 7 8 8 8 8 8 8 8 7
6 6 6 6 4 3 2 3 4 3 4 5 6 7 7 7 7 7 6 6 6 5 5 6 6 7 9 10 10 9 8 8 7 6 5 5 5 4 3 2 2 1 1 3 3 3 1 1 1 2 4 4 4 4 3 3 3 2 2 2 2 2 2 1 1 1 1 2 2 2 3 3 4 5 5 6 6 7 8 8 8 8 8 8 8
7 5 6 5 4 3 1 2 3 3 3 3 5 7 7 6 6 6 6 6 5 5 4 4 5 6 8 9 9 8 7 6 6 6 6 5 5 4 4 4 4 3 0 2 3 2 2 1 0 1 3 4 3 3 3 3 3 3 4 4 4 3 3 2 2 1 1 1 1 2 2 3 3 4 5 5 6 6 7 7 7 7 8 7 7
7 6 6 6 5 4 2 3 3 4 4 3 4 6 7 6 6 6 5 5 4 3 3 3 4 5 7 8 8 7 5 5 5 6 6 5 5 5 5 6 5 4 2 1 3 2 2 2 1 1 0 2 2 1 2 2 3 3 4 5 5 5 4 3 3 2 1 0 1 1 2 2 3 3 4 5 5 6 6 6 6 7 7 7 7
8 7 6 6 6 4 3 3 3 4 4 3 4 5 6 6 6 5 4 4 3 3 2 3 3 4 6 7 7 5 3 4 5 6 5 5 6 6 6 6 5 4 2 0 2 2 3 4 3 2 0 2 1 4 5 4 4 4 4 4 4 4 4 4 3 2 2 1 0 0 1 1 2 2 3 4 5 5 5 5 5 6 6 6 7
8 6 6 6 5 3 3 3 2 3 4 4 4 5 6 6 5 5 4 4 3 2 2 2 2 3 5 6 6 3 2 3 5 5 5 6 6 6 6 6 6 4 2 1 1 2 2 3 5 3 1 3 0 4 5 6 6 6 5 4 3 3 3 3 3 3 2 2 1 0 0 1 1 2 3 3 4 4 4 4 4 5 5 6 6
6 5 6 6 5 3 3 2 2 3 4 4 4 5 6 6 5 5 5 4 3 2 2 2 1 1 4 5 5 4 2 3 4 5 5 6 5 5 7 6 6 5 3 2 1 2 2 2 4 4 4 4 1 3 3 3 6 8 8 7 5 3 2 1 1 2 2 2 2 1 1 0 1 1 1 2 2 2 3 3 4 4 5 5 6
5 5 5 6 5 4 3 3 3 4 4 4 4 5 5 5 5 5 5 4 4 3 3 3 2 2 3 4 4 4 4 3 4 5 5 5 5 6 7 7 6 5 4 3 2 2 1 1 3 4 5 5 5 3 1 1 4 6 8 11 9 6 5 4 3 2 2 1 1 1 1 0 0 1 1 1 1 1 2 2 3 3 4 5 5
5 5 5 5 5 4 4 4 4 5 5 4 5 5 5 5 6 6 5 5 5 4 4 4 4 3 3 4 4 4 4 3 4 6 6 6 6 7 7 7 6 6 5 4 3 2 1 1 1 3 3 3 3 3 3 4 1 2 4 8 10 8 7 6 6 5 5 4 3 2 1 0 1 1 1 1 0 1 1 2 3 3 3 4 5
5 4 4 5 5 5 5 5 6 6 6 5 5 5 6 6 7 7 6 6 6 5 5 5 5 4 4 5 4 4 5 4 5 7 6 7 7 7 8 7 7 7 6 5 3 2 1 1 0 1 1 1 1 3 4 4 4 2 1 2 5 7 8 8 9 9 9 8 8 6 5 4 2 1 0 0 0 1 2 2 2 2 3 4 4
4 4 4 5 6 6 6 6 7 6 6 6 6 6 7 7 7 7 7 7 7 6 5 6 6 6 6 6 6 5 5 5 6 7 7 7 7 6 8 8 7 7 6 5 4 2 2 2 0 1 1 1 1 2 3 5 5 3 2 2 1 2 3 5 5 7 9 9 9 9 8 8 6 4 2 1 1 2 2 2 2 3 3 3 4
3 4 5 5 6 6 6 6 6 5 6 5 5 6 7 7 7 7 7 7 8 7 6 6 7 7 7 7 7 6 5 5 6 6 6 6 5 6 7 7 7 7 7 6 5 4 2 2 1 0 0 1 1 3 4 4 2 1 2 3 3 2 3 2 1 2 4 5 6 8 8 7 7 6 5 4 3 3 3 3 3 4 3 3 3
4 5 6 6 6 6 6 6 5 5 5 5 6 6 6 7 7 7 7 7 8 8 7 7 7 8 9 9 8 7 6 6 6 5 4 4 5 6 7 7 7 8 8 7 7 6 4 3 2 1 1 1 1 1 3 3 1 1 3 5 4 4 5 3 3 3 3 3 4 6 6 6 6 6 6 6 5 5 4 4 4 4 4 3 3
6 6 6 6 6 6 6 6 6 6 6 5 6 6 6 6 6 6 7 7 7 8 8 9 8 8 8 9 9 8 6 5 5 5 5 4 4 6 6 6 7 7 7 7 8 7 6 5 4 3 3 3 3 2 2 1 1 3 5 5 5 5 5 3 3 4 4 5 4 6 7 6 6 7 6 6 6 6 5 5 4 4 4 3 3
7 6 5 6 5 5 5 6 6 6 5 5 6 6 6 6 6 6 7 7 7 8 9 10 9 9 9 9 9 8 6 4 4 4 5 5 4 4 5 6 6 6 6 6 7 8 7 6 6 5 4 5 5 4 4 2 3 5 5 4 4 4 4 3 4 4 4 5 6 5 6 7 6 6 6 6 6 6 5 5 4 4 4 3 4
7 6 6 5 5 5 4 4 5 5 5 5 5 5 6 6 7 7 7 7 8 9 10 10 9 10 9 8 7 6 5 4 4 4 4 5 5 5 5 5 5 5 5 5 6 6 6 6 7 6 5 5 6 6 5 4 4 5 4 3 4 4 4 3 4 5 4 5 6 5 6 6 6 6 6 7 7 6 5 4 4 3 3 3 3
8 8 7 6 5 5 4 5 5 5 6 5 4 4 6 6 7 8 8 7 7 8 9 10 10 10 9 7 6 4 5 7 7 5 3 5 7 6 4 4 3 3 4 4 4 4 4 5 5 5 5 4 5 6 6 5 5 6 5 4 3 2 3 3 3 2 2 3 5 6 6 6 5 6 6 6 7 7 6 5 3 4 3 2 2
8 7 7 7 7 6 6 5 5 5 6 7 5 5 6 7 7 9 9 8 7 6 7 9 10 11 10 8 5 2 6 10 9 8 5 4 6 6 5 4 4 4 3 2 2 2 1 2 3 3 3 3 3 2 2 3 5 5 5 3 2 1 2 3 3 3 3 4 5 6 8 7 5 5 6 7 7 7 8 8 5 3 2 2 2
5 5 6 8 8 8 7 6 6 5 6 6 6 5 6 7 8 9 9 9 8 6 6 8 10 11 9 9 6 2 4 9 8 8 9 8 5 6 6 5 5 4 2 1 0 0 1 1 1 2 2 2 1 3 4 3 1 1 2 2 2 2 2 3 3 3 4 4 4 4 5 6 5 2 4 7 7 6 8 10 10 7 5 4 5
2 4 7 9 8 8 8 7 7 6 5 5 4 4 5 6 7 9 9 8 8 7 6 7 9 10 8 8 7 6 7 9 6 6 10 13 9 7 7 7 6 5 4 3 4 4 3 3 2 2 2 3 4 5 5 5 4 4 2 1 2 3 3 3 4 4 5 5 5 6 6 7 6 4 3 4 4 4 5 8 10 8 7 8 9
3 6 8 9 7 7 7 7 7 7 7 5 4 5 5 5 5 7 8 8 8 8 7 8 9 10 8 7 7 8 10 10 6 6 8 13 13 10 9 9 8 8 7 7 8 7 7 6 6 6 6 6 7 7 6 6 5 4 3 3 3 4 4 5 6 7 7 7 7 7 7 6 6 6 6 6 5 4 4 5 7 8 7 7 8
5 6 7 7 6 5 5 6 6 6 7 6 5 5 6 5 5 6 7 7 8 8 7 7 9 10 9 7 7 10 12 11 9 8 9 10 12 12 11 11 11 10 9 9 9 9 9 8 8 8 8 9 9 9 8 7 6 5 5 6 6 7 7 7 6 6 6 7 6 6 6 6 6 6 6 6 6 6 6 5 5 6 6 6 5
5 4 5 5 4 3 3 4 4 5 5 6 6 5 5 5 5 5 7 7 8 8 8 7 8 9 9 8 7 7 7 8 8 9 10 10 13 15 13 12 13 12 11 11 11 11 11 10 10 10 10 10 10 10 9 9 8 8 8 8 8 7 6 5 5 5 5 6 7 7 7 7 7 7 7 7 7 6 6 6 6 6 6 6 6
5 4 3 3 3 3 2 2 2 3 4 5 6 5 5 5 5 5 6 7 8 8 8 8 7 8 8 10 10 7 5 5 7 7 8 10 14 18 17 15 15 15 14 14 14 14 13 12 11 11 10 10 10 9 9 9 9 9 8 7 6 5 5 4 4 4 5 6 7 7 7 8 8 8 8 8 8 7 6 6 6 6 6 7 7
5 4 3 3 4 4 4 3 2 1 1 4 6 6 6 6 5 5 5 6 7 7 8 7 7 7 8 9 10 9 7 6 7 7 7 11 16 20 19 16 16 17 16 15 15 14 12 11 11 10 10 9 8 8 7 7 8 8 7 6 6 6 6 6 5 5 5 6 6 7 7 7 7 7 8 7 7 7 7 6 6 6 6 6 7
4 4 4 4 4 5 5 5 4 3 2 5 8 8 8 7 6 6 6 6 7 7 7 7 7 7 8 9 9 9 9 8 7 7 8 14 18 19 20 19 18 17 16 14 13 12 11 10 9 9 8 7 6 6 5 6 7 8 8 7 7 7 7 6 6 6 6 6 6 6 6 6 6 6 6 7 7 7 7 6 6 6 6 6 6
5 5 4 4 4 5 6 6 5 4 2 6 9 9 9 8 8 7 7 8 8 8 8 7 6 6 7 8 9 10 9 8 7 7 10 14 15 15 16 17 18 17 14 13 12 10 9 9 8 7 6 6 6 6 5 6 7 8 8 8 7 7 7 7 8 8 8 7 6 6 6 6 6 6 6 6 7 7 7 7 7 7 7 7 7
6 7 6 5 5 6 7 7 5 3 1 7 10 9 9 9 9 8 8 9 9 9 9 8 7 6 7 8 10 11 10 9 8 9 11 13 12 11 9 8 12 15 14 12 10 9 9 8 7 7 5 5 6 7 7 6 6 6 7 6 6 6 6 7 9 10 10 9 8 7 7 7 7 7 7 7 7 7 8 9 9 9 9 9 9
7 8 8 7 7 7 8 8 6 2 2 7 11 11 10 10 10 9 9 9 8 9 9 8 7 6 7 10 11 11 12 11 10 10 13 13 12 10 8 4 5 9 12 12 10 9 8 7 6 6 6 6 6 7 6 5 5 4 5 5 5 5 5 7 9 11 12 13 12 10 8 8 8 7 8 8 8 8 8 9 9 11 11 12 12
8 8 9 9 9 8 9 9 6 4 3 7 11 11 11 11 10 10 9 8 8 8 8 7 7 7 8 10 11 13 13 12 11 11 12 12 10 9 8 5 1 3 5 8 9 9 8 7 6 5 6 6 6 5 4 4 4 4 5 5 5 4 4 5 7 10 13 15 16 14 11 10 9 9 9 10 10 10 10 9 9 10 10 12 12
7 9 10 11 10 9 9 8 6 6 6 7 10 11 12 11 10 9 9 8 7 8 9 9 8 7 8 9 11 13 14 13 11 11 10 10 10 8 7 7 4 1 0 2 4 7 9 8 7 7 7 6 6 5 4 4 4 5 5 5 4 3 3 4 6 9 11 14 16 16 15 14 12 10 9 10 11 11 11 11 10 10 10 11 11
6 9 10 11 10 9 9 8 7 7 7 8 10 11 12 11 10 9 8 7 8 9 11 11 10 9 8 9 10 11 12 12 11 10 9 9 10 11 10 9 7 6 5 4 1 4 9 10 8 9 9 7 6 5 4 4 4 5 5 4 3 1 1 2 5 8 10 12 14 16 18 18 18 15 13 12 13 13 12 12 11 11 11 11 12
6 9 10 10 10 10 9 9 8 8 9 10 12 12 13 12 11 10 8 8 8 8 11 13 13 11 9 9 10 10 10 9 9 8 7 7 8 10 12 12 11 10 9 8 4 3 8 10 9 10 10 9 7 6 5 5 4 4 4 4 3 2 2 1 4 7 9 11 13 15 18 20 22 21 19 17 16 15 14 13 12 11 11 11 12
6 8 9 10 11 10 9 9 9 10 12 13 14 14 14 13 12 11 10 10 9 9 9 11 13 13 11 11 10 9 8 8 8 7 7 8 8 9 11 13 13 13 13 11 8 4 5 8 9 10 11 10 8 6 6 6 5 4 4 4 3 3 3 3 4 6 9 11 13 15 18 20 22 24 22 21 19 18 17 16 15 13 12 11 11
8 9 9 11 11 10 10 10 11 14 15 16 16 15 14 13 12 11 10 9 8 8 8 8 10 12 13 12 11 10 10 9 9 10 9 9 9 9 11 13 13 14 15 13 10 7 7 8 10 11 10 9 8 7 6 6 6 5 5 5 5 5 5 6 7 8 9 11 13 15 17 20 23 24 24 23 21 20 19 18 17 16 14 12 12
9 10 11 13 13 13 13 14 15 16 17 17 15 14 13 11 10 9 8 7 7 7 7 7 8 9 10 11 11 11 11 10 10 10 9 8 7 7 8 10 12 15 17 15 12 9 9 10 11 11 9 8 8 8 8 8 7 7 7 7 6 6 7 7 8 9 10 12 14 16 18 21 23 25 24 24 23 22 21 19 18 17 16 15 14
10 12 13 15 15 15 16 17 18 18 17 16 15 14 12 10 10 9 7 7 6 6 6 6 7 7 7 7 9 10 10 10 10 10 10 9 8 6 5 7 10 13 15 15 12 10 9 9 11 11 10 9 9 10 10 9 8 7 8 8 8 8 8 8 9 10 11 13 14 16 18 21 23 25 25 25 25 24 23 21 20 18 17 16 15
11 13 14 15 16 16 17 18 19 18 18 16 15 13 12 10 9 8 7 6 6 6 6 6 6 6 6 7 9 11 11 12 12 11 10 10 9 8 7 7 9 12 14 15 14 12 10 9 11 12 12 11 11 11 12 11 10 8 8 9 10 10 10 10 10 11 12 14 15 16 19 21 24 25 26 25 25 24 23 21 20 19 18 17 17
12 14 15 15 16 16 16 17 17 17 17 16 14 13 11 10 9 8 7 7 7 7 7 7 7 7 7 8 9 11 12 13 13 12 11 11 11 10 9 10 11 13 15 16 16 14 12 10 11 13 12 12 13 13 13 13 12 11 11 10 10 11 11 12 12 13 13 14 15 18 20 22 25 26 26 25 24 22 20 19 19 19 19 19 18
12 14 14 15 14 14 14 14 13 13 13 13 13 12 11 10 10 10 9 10 10 10 10 9 9 8 9 9 9 9 10 11 13 13 13 13 13 12 12 13 14 15 16 16 17 16 13 12 13 13 13 13 14 14 15 15 14 14 14 12 12 12 12 13 13 14 15 16 17 19 22 24 26 27 25 24 22 20 18 17 17 17 18 18 19
13 13 13 12 11 11 12 12 11 11 10 11 11 10 10 11 11 11 11 11 12 12 11 10 10 10 10 11 11 10 10 11 12 13 14 14 14 14 14 14 15 16 16 17 17 17 15 14 15 15 15 16 16 16 17 17 16 16 15 14 14 13 13 14 14 15 17 19 20 22 25 27 27 27 25 23 21 19 18 17 17 17 18 18 19
14 14 13 11 11 11 11 12 12 11 11 11 10 10 10 10 11 12 12 11 11 12 11 11 12 11 11 12 12 12 12 12 12 13 13 14 15 15 14 13 13 15 17 18 18 18 17 17 17 18 18 18 18 18 19 18 17 17 17 16 15 15 15 15 16 18 20 21 23 25 28 28 26 25 24 22 20 20 20 19 19 19 19 19 20
15 15 15 13 12 13 13 13 13 13 14 13 13 13 13 13 14 14 14 13 12 12 13 13 14 13 14 14 15 15 15 14 14 14 15 15 15 16 16 15 14 15 17 19 19 18 18 18 19 20 20 20 20 20 20 20 19 19 19 18 18 18 18 18 18 20 22 24 25 27 28 26 24 23 22 21 21 22 22 21 21 21 21 22 22
17 17 16 14 13 14 14 14 15 15 15 15 15 16 16 17 17 17 17 17 16 16 16 16 17 17 17 17 18 18 19 18 17 17 18 17 17 18 19 19 20 19 20 20 20 20 19 18 18 20 21 21 21 22 22 21 20 20 19 19 19 18 19 19 20 22 24 25 25 25 25 25 23 21 21 20 21 22 22 22 21 22 23 23 24
17 16 16 15 14 15 16 16 16 16 16 16 16 16 16 17 18 19 20 20 20 20 19 20 20 20 20 20 21 21 21 21 21 21 21 21 21 20 20 22 24 24 24 24 24 24 23 21 19 19 21 22 23 23 22 21 20 19 18 18 18 18 19 20 22 24 25 26 25 23 23 23 22 21 21 21 20 20 21 22 22 23 24 25 26
15 15 15 15 15 16 17 17 17 17 17 17 17 17 16 16 17 19 20 21 22 22 23 23 23 23 23 23 23 23 23 23 24 25 25 24 24 24 23 23 25 26 26 26 26 27 27 25 23 20 19 21 22 20 19 19 18 18 18 18 19 19 20 21 23 24 25 25 24 22 21 22 22 21 21 21 20 20 23 25 26 26 27 28 28
14 14 15 15 15 15 16 17 17 17 17 18 19 19 19 18 18 19 21 22 23 24 25 25 25 24 25 25 25 25 25 25 26 27 28 27 27 27 26 26 26 28 28 28 27 26 25 24 22 19 18 18 18 18 17 17 18 18 18 19 19 19 20 21 23 24 23 23 22 21 21 22 23 22 22 22 23 23 25 26 27 27 27 27 27
15 16 16 16 17 17 17 17 18 17 16 17 19 20 21 22 22 23 23 24 25 26 26 26 26 26 26 26 26 27 27 27 28 29 30 30 30 29 28 27 28 29 30 29 28 25 23 21 20 19 18 17 17 17 17 18 18 18 19 19 19 19 20 20 21 21 21 21 21 21 22 23 23 24 24 25 27 26 26 26 26 26 26 27 28
15 16 16 17 18 18 17 16 16 16 14 14 14 16 18 21 23 26 27 29 30 31 31 30 29 28 28 28 28 29 29 30 29 29 30 32 32 30 28 28 28 30 31 31 28 24 22 21 20 19 19 19 18 18 18 18 19 19 19 19 18 18 17 17 17 18 19 20 21 21 22 23 24 26 28 29 29 28 27 26 26 27 28 29 30
13 13 13 14 14 15 14 14 14 15 14 13 13 14 15 15 18 21 24 27 29 31 31 31 30 29 29 29 30 31 32 31 30 29 30 31 31 30 29 28 29 31 31 29 25 23 22 21 21 20 20 19 19 18 18 18 19 19 18 17 16 15 16 16 17 18 20 21 22 22 23 24 26 28 31 32 32 30 27 27 28 29 31 31 30
9 10 11 11 12 12 13 14 15 17 17 16 15 16 15 15 14 15 17 20 23 24 25 26 26 27 28 29 30 31 32 31 30 30 30 30 30 30 29 28 28 29 28 24 21 21 21 19 18 19 19 18 18 18 18 17 17 16 15 14 15 16 16 17 18 18 19 21 23 24 25 27 28 30 31 33 33 32 30 30 31 32 32 31 29
Wind_Direction
197 193 190 187 185 180 172 170 163 146 152 161 169 169 171 176 179 182 185 187 190 198 206 202 194 195 197 201 204 209 221 233 246 248 240 241 249 257 247 141 17 345 357 10 8 12 356 319 296 246 229 222 216 211 212 213 222 237 262 276 282 277 244 127 119 107 106 103 103 106 103 101 98 93 89 87 84 82 80 75 72 70 66 64 62
208 206 205 202 200 190 168 169 179 171 151 156 173 181 183 185 188 189 193 196 202 207 210 208 202 204 208 212 216 220 226 238 259 263 249 247 254 260 248 211 183 208 332 16 23 28 11 301 247 218 214 210 210 209 213 222 232 241 253 256 262 264 261 258 236 151 126 116 108 101 95 91 85 83 82 84 85 83 82 77 76 75 71 68 64
208 219 227 224 216 201 201 203 205 191 165 161 175 183 188 192 192 191 196 197 202 212 215 221 215 215 220 226 233 237 239 245 266 267 252 248 244 238 221 204 178 168 191 19 18 18 3 333 150 182 206 201 197 203 219 233 242 250 255 257 256 255 256 257 259 247 177 124 114 101 89 85 78 75 75 77 82 82 84 81 76 76 73 70 65
213 226 235 234 223 213 229 231 218 201 193 193 181 181 188 195 198 196 196 191 193 203 213 234 237 236 233 235 240 242 245 250 260 254 240 235 229 220 210 197 165 156 177 10 11 9 14 28 66 18 221 191 199 258 280 273 274 270 261 259 255 249 252 251 250 254 238 196 128 107 92 89 82 80 78 76 76 77 81 81 78 75 72 69 67
220 228 233 234 223 218 241 244 227 213 212 206 185 182 190 195 199 199 194 185 182 182 197 226 247 251 235 230 229 226 235 240 240 236 229 227 223 213 203 186 157 157 181 34 22 20 18 31 35 359 62 150 251 334 343 323 310 302 281 266 259 253 252 251 248 248 246 244 240 115 99 101 90 81 76 74 75 75 77 79 79 77 74 70 66
221 228 230 229 221 227 258 254 232 215 209 194 183 183 185 184 187 192 192 182 171 164 181 206 243 248 226 223 219 210 223 221 218 225 226 219 210 203 199 181 159 161 168 123 44 33 30 26 20 6 91 111 49 323 348 347 330 325 322 305 287 275 263 260 256 254 260 267 273 276 107 91 75 72 68 69 74 76 75 76 75 73 71 70 67
229 234 230 223 223 240 254 241 214 204 203 187 178 176 178 178 179 183 182 173 167 164 181 194 218 226 210 216 216 206 201 200 203 208 205 202 198 197 197 183 162 156 151 139 98 56 45 20 11 25 84 108 156 286 341 360 322 324 353 5 351 355 4 338 291 281 279 280 287 294 307 5 47 60 70 73 82 86 85 77 71 68 63 64 66
241 238 229 222 224 231 221 210 190 185 190 181 171 170 174 178 177 178 175 166 164 166 179 180 176 174 183 194 200 201 200 200 206 201 191 191 192 189 189 181 160 148 150 149 125 98 73 2 354 20 72 123 176 213 236 220 291 322 13 31 29 36 46 55 62 56 50 19 333 287 274 235 158 138 146 121 112 95 88 82 74 67 61 60 63
232 224 220 220 219 218 208 199 185 177 177 174 174 173 172 174 175 175 170 164 161 165 171 161 150 155 163 162 164 178 191 193 188 190 188 185 183 179 180 176 160 154 158 152 136 128 146 214 330 356 37 94 156 140 159 201 249 343 32 42 47 60 67 68 71 71 75 71 68 71 68 199 203 186 189 177 139 57 53 63 68 65 60 61 61
206 198 200 209 211 207 200 192 181 175 171 167 172 172 167 169 172 172 167 162 161 164 165 152 148 157 149 148 155 160 164 156 163 181 188 183 180 176 177 179 169 164 161 151 147 142 167 206 266 330 357 31 107 107 125 158 155 159 142 74 63 65 64 64 63 62 64 64 62 58 52 50 41 30 307 245 58 49 50 45 47 51 52 57 57
181 173 182 197 195 188 187 186 183 176 166 164 168 166 165 166 161 161 167 166 162 162 165 156 153 157 153 152 156 156 158 157 170 186 190 183 183 184 184 187 180 171 167 162 166 172 181 192 188 354 351 3 149 133 130 130 137 166 187 201 184 66 46 54 57 52 50 44 43 47 47 47 44 39 32 29 36 40 47 37 27 30 35 47 51
168 170 180 185 183 179 179 184 188 177 164 164 164 157 163 166 158 157 169 173 167 164 168 166 162 159 158 159 154 154 158 161 172 177 176 172 176 194 197 195 197 188 183 185 183 186 191 179 182 298 94 176 173 159 148 132 124 163 224 244 252 268 285 309 322 7 30 16 12 22 28 35 37 38 34 28 34 36 35 31 29 31 30 36 42
158 166 167 165 170 175 178 185 191 179 164 164 160 155 159 163 163 165 171 178 174 171 168 168 174 168 162 163 163 164 167 168 174 173 172 169 171 197 205 204 212 205 196 203 198 188 189 188 203 236 205 188 194 181 153 144 175 259 264 266 271 267 276 300 301 318 335 314 325 333 337 1 14 20 29 29 33 37 41 44 42 44 38 30 27
162 159 152 147 154 162 170 179 183 173 165 170 162 157 161 160 165 174 180 184 180 178 171 165 177 183 177 172 167 166 172 182 188 187 190 190 193 208 212 211 215 214 210 215 210 197 192 199 209 224 235 227 226 241 222 173 258 271 269 271 273 268 280 307 295 298 305 292 283 280 292 321 340 348 4 15 28 38 43 49 51 57 52 37 25
159 154 149 142 137 141 153 167 172 164 165 178 168 158 162 158 161 173 186 190 183 181 176 169 174 184 185 180 173 165 159 179 193 185 187 187 196 209 207 210 214 220 223 216 213 211 204 211 223 228 241 239 237 253 260 260 270 272 271 276 288 292 308 321 298 289 288 289 287 281 291 302 308 315 328 343 3 26 35 39 45 55 59 54 43
151 147 149 148 144 139 142 153 157 154 161 174 171 167 168 161 158 163 178 193 191 188 184 179 179 186 189 182 180 172 149 162 173 156 171 174 172 187 197 211 222 224 218 205 212 221 214 220 233 241 252 247 243 256 263 254 254 268 275 272 285 309 331 333 297 279 264 280 296 298 289 280 288 303 310 318 327 348 11 17 23 33 47 60 56
152 151 153 160 163 157 151 148 144 146 155 162 168 180 178 168 161 158 165 181 192 194 191 187 186 193 200 185 170 180 180 179 159 124 143 160 150 163 185 193 196 190 188 196 218 229 224 227 236 246 260 264 258 263 266 253 253 270 275 268 277 318 345 339 322 297 278 295 304 297 283 274 288 308 308 299 294 307 323 328 352 14 21 31 43
150 147 153 164 169 169 168 160 153 153 157 159 160 174 180 173 168 161 159 166 179 193 196 194 189 191 203 199 178 201 208 190 161 129 126 133 138 150 158 155 150 153 165 192 242 249 248 244 250 267 284 288 280 290 283 246 255 269 264 260 282 332 339 326 338 357 342 319 307 298 298 304 307 300 296 288 286 296 291 286 297 307 310 331 324
145 133 147 164 167 168 170 165 161 160 160 162 160 167 174 172 170 164 161 165 174 188 200 201 195 192 202 204 199 236 227 202 185 159 139 123 130 153 150 146 144 145 154 166 214 107 29 357 295 311 330 343 61 88 92 108 140 204 218 251 316 339 348 336 345 2 349 331 326 326 334 348 353 320 298 296 296 297 280 280 286 272 259 283 286
146 130 151 165 163 159 161 157 155 155 156 160 166 172 167 164 167 167 168 170 175 185 199 207 202 201 206 205 212 228 215 204 207 203 161 138 136 145 141 139 135 125 117 113 107 100 92 87 85 72 58 63 86 101 101 95 94 103 110 27 359 359 8 11 18 35 41 37 35 35 37 38 38 35 12 348 328 310 287 287 296 295 292 287 275
149 139 151 162 160 155 154 155 156 158 160 160 173 182 171 164 166 169 174 174 177 182 191 207 210 210 211 210 207 195 192 195 194 210 190 156 146 148 141 131 120 109 105 104 101 97 94 91 88 82 79 81 86 93 95 91 88 86 78 62 45 36 47 57 56 58 59 55 47 40 38 37 33 30 24 20 16 11 356 319 315 323 325 312 291
149 139 144 151 154 157 156 160 164 164 168 170 175 180 173 171 167 164 168 170 175 177 176 194 209 212 211 208 192 174 181 197 192 191 195 174 157 154 146 133 122 113 109 106 101 99 93 86 84 82 82 84 85 85 86 87 87 85 82 79 74 69 71 74 64 48 39 38 36 32 28 23 19 18 13 10 14 20 19 8 359 357 358 357 345
145 135 136 143 150 163 169 169 160 146 153 164 169 171 165 165 163 156 161 164 168 172 169 179 197 204 203 199 192 187 192 203 203 195 192 184 165 151 142 134 126 119 115 110 104 99 94 90 89 88 88 86 83 82 81 83 85 87 87 86 85 83 78 71 61 43 34 38 43 43 41 35 30 25 21 17 13 11 9 8 8 4 1 360 356
153 148 147 163 174 190 201 202 161 122 130 153 160 162 159 156 153 146 150 157 159 163 167 173 182 189 196 196 192 200 216 215 212 201 194 193 171 151 143 141 130 120 114 111 106 101 98 98 96 93 91 89 87 87 88 89 90 91 92 93 91 89 86 77 69 58 48 45 44 45 44 40 36 30 27 23 18 12 5 357 352 346 343 341 342
166 163 161 180 206 223 229 245 252 246 178 175 170 168 167 159 151 146 144 147 149 153 159 164 171 177 188 194 187 188 196 199 206 202 188 187 170 150 144 145 133 123 118 114 110 108 106 104 101 100 98 96 96 97 100 102 102 101 97 97 95 91 88 80 71 62 51 42 36 33 32 30 29 26 22 18 15 10 6 360 352 343 334 327 322
178 174 166 173 204 229 238 247 254 272 257 195 178 170 168 161 152 148 145 144 145 150 154 156 166 175 183 187 179 175 178 178 193 202 184 178 170 154 145 138 128 122 119 117 115 114 114 113 110 109 108 108 109 106 108 112 110 108 102 97 94 87 80 72 62 55 45 36 28 20 17 17 15 14 11 7 3 0 357 355 352 346 337 329 320
208 203 193 181 197 219 231 241 254 280 250 186 177 167 164 156 149 150 148 148 149 152 154 154 160 173 180 178 171 168 169 169 178 183 177 178 175 163 152 140 130 126 122 122 122 120 121 122 122 118 113 117 121 115 114 117 112 108 102 97 93 86 78 67 56 47 39 31 23 14 10 6 4 3 359 353 348 345 342 339 338 337 332 327 322
218 222 219 206 209 217 220 231 245 272 219 177 172 168 165 156 152 157 157 156 158 157 155 156 158 166 166 160 160 163 161 160 166 167 170 178 178 168 164 149 132 131 134 135 133 132 133 134 131 127 120 123 127 122 117 117 117 112 108 104 97 92 82 69 56 45 37 29 20 13 10 8 5 2 359 354 345 337 331 328 325 323 320 318 317
198 212 220 221 224 222 217 223 229 234 185 171 171 171 170 164 162 168 166 163 166 162 157 158 158 158 156 151 153 156 154 153 160 165 169 176 179 172 168 153 106 116 136 145 144 143 146 148 145 137 134 134 131 128 124 125 129 127 123 118 113 106 91 72 57 45 39 33 25 16 9 8 9 8 6 2 357 349 339 330 323 318 314 311 310
178 193 208 215 219 217 212 217 212 181 152 159 167 172 174 172 173 176 175 173 175 170 163 163 158 156 159 158 157 155 152 151 156 166 173 178 183 183 180 180 139 69 114 138 143 146 150 156 159 157 155 154 146 138 139 141 147 152 145 137 131 122 101 75 53 41 37 35 31 24 16 10 7 7 7 4 360 356 350 342 334 326 318 310 308
175 186 196 201 203 202 202 207 196 168 151 146 155 166 175 179 180 180 178 179 187 183 174 167 159 157 164 162 160 159 156 153 155 166 183 193 202 209 211 209 209 224 174 136 138 148 150 149 155 161 165 169 162 155 158 158 158 161 156 149 141 123 102 71 47 37 34 31 28 24 18 11 4 359 360 0 358 354 349 344 339 333 328 320 314
175 183 192 196 194 193 193 195 188 171 161 154 152 158 167 174 175 172 172 178 190 190 182 174 162 159 167 161 154 156 158 159 160 165 182 202 218 227 230 234 233 233 234 233 218 152 150 147 150 160 166 169 167 163 164 165 168 170 169 172 172 156 122 61 38 29 24 20 17 14 10 6 2 355 352 352 353 352 346 342 338 334 331 326 321
177 181 191 195 192 191 188 188 186 174 166 161 157 155 157 163 163 160 159 157 159 165 173 178 172 169 174 170 163 161 162 168 172 174 186 200 220 232 234 237 238 238 237 231 230 182 163 161 158 165 173 174 170 165 163 166 176 185 183 188 205 238 260 332 10 8 6 5 3 3 1 359 356 352 348 346 346 347 345 341 338 334 330 324 319
179 182 191 191 187 189 188 186 181 169 162 158 154 152 152 154 154 151 147 141 134 133 150 171 178 181 184 182 179 179 182 196 210 221 228 228 236 242 243 246 244 242 241 233 229 238 211 188 178 179 185 185 178 166 160 168 182 193 195 202 227 264 295 310 321 332 342 347 348 350 352 351 350 348 344 341 340 342 342 340 337 333 329 322 315
180 184 188 181 176 179 179 175 169 162 159 155 151 151 151 151 151 149 144 140 138 137 140 154 170 182 190 191 194 200 208 221 234 241 242 238 240 243 248 253 250 243 241 233 230 251 255 225 206 198 196 194 186 175 174 184 190 197 211 220 235 266 297 302 299 305 320 330 334 338 342 344 344 343 340 336 335 337 338 336 333 329 326 321 314
183 183 182 174 168 170 169 166 163 161 160 158 156 156 156 156 154 152 150 150 152 154 154 157 167 179 189 196 204 214 222 228 234 242 247 246 242 238 241 245 242 239 239 233 232 249 259 245 228 214 203 197 192 188 192 200 201 207 222 236 245 259 277 286 287 293 305 317 324 329 334 337 339 338 335 331 331 334 334 332 328 325 321 317 313
187 184 180 173 169 170 170 167 165 165 166 166 165 165 165 164 162 162 165 166 167 175 180 180 183 186 192 203 214 223 229 234 241 249 254 254 251 246 238 232 228 229 231 231 235 244 250 250 240 221 205 198 200 202 204 213 225 227 231 243 251 256 265 271 276 286 298 308 316 321 326 330 332 332 329 327 329 331 331 329 327 323 318 314 311
188 184 180 178 175 175 176 173 171 172 174 175 174 175 174 173 174 179 187 189 189 196 202 201 200 204 209 214 223 232 241 249 256 258 253 249 248 248 241 227 218 216 221 231 240 243 242 246 241 227 212 206 211 216 215 221 234 241 243 251 253 255 260 264 270 281 292 301 309 316 321 324 325 324 322 322 326 327 326 325 323 320 316 312 308
189 185 183 184 182 179 181 181 180 181 181 183 186 187 187 187 192 203 214 219 220 218 219 220 222 227 229 229 232 239 247 255 259 258 251 245 242 239 236 230 225 225 229 236 240 241 239 235 233 228 220 215 219 225 225 227 234 240 247 256 257 256 259 264 272 281 290 300 307 312 317 320 319 318 319 322 324 324 323 320 316 313 312 310 309
188 186 184 185 184 182 183 186 189 191 191 194 199 203 204 206 212 221 231 237 239 236 232 233 241 246 245 245 249 251 254 256 257 255 254 252 249 244 240 239 239 240 240 238 236 238 237 230 226 228 228 227 228 228 228 232 237 242 248 255 257 258 261 266 273 281 290 298 304 308 312 314 314 315 319 323 324 324 321 316 311 308 307 308 309
189 186 182 180 184 188 189 189 192 198 202 203 207 213 218 220 224 231 239 245 247 245 241 242 251 258 257 255 257 258 260 260 259 258 256 257 260 259 254 250 249 248 245 238 233 233 234 228 224 226 231 235 235 232 231 236 243 248 252 255 256 258 260 264 271 279 287 293 299 303 306 308 311 315 320 324 324 323 320 316 311 309 307 307 308
197 193 188 188 194 200 202 203 205 211 216 217 218 225 229 233 237 241 246 252 252 250 251 256 262 267 269 267 263 261 261 263 264 263 261 263 266 269 265 258 253 251 249 244 237 234 233 231 227 228 232 236 238 236 237 241 245 246 246 248 250 253 258 265 273 280 285 290 295 300 304 308 313 317 321 325 325 322 319 317 313 310 307 306 305
203 200 198 203 209 211 212 216 220 227 232 233 235 239 242 244 245 246 250 254 255 255 261 268 273 277 277 274 270 268 267 269 270 270 268 267 267 268 266 260 251 247 246 244 240 237 234 233 231 232 235 238 239 238 238 241 244 243 242 244 247 252 259 267 274 280 285 290 296 302 307 311 315 319 322 324 323 320 318 315 312 310 306 304 304
206 203 204 210 214 214 217 222 229 236 241 244 246 248 249 249 250 251 253 254 255 258 264 270 274 276 276 277 276 273 272 274 277 277 273 270 268 268 265 261 255 249 245 242 240 238 238 238 239 239 239 238 236 236 238 241 242 241 242 245 249 256 264 270 277 284 289 295 302 307 309 311 315 320 322 322 321 318 314 312 310 308 305 303 303
207 205 206 211 213 214 217 223 231 238 245 249 251 251 251 251 251 253 255 255 255 257 263 270 273 273 274 276 276 275 273 274 277 278 276 272 269 268 267 264 259 255 252 248 244 243 244 247 249 248 245 240 236 236 239 239 239 241 245 250 256 264 271 278 284 290 296 301 306 308 308 310 315 319 319 319 319 315 311 310 308 305 303 301 301
204 205 207 211 214 217 219 224 230 239 246 251 254 255 254 251 250 250 252 254 255 258 263 268 270 270 272 273 273 273 272 272 275 278 277 274 270 268 269 267 263 259 257 253 248 246 246 248 249 249 247 242 237 236 238 237 238 243 249 255 263 270 277 284 290 296 300 303 305 307 309 311 314 316 316 316 315 313 310 308 306 304 303 302 302
208 211 212 215 219 222 225 230 234 238 245 251 254 257 257 254 251 249 249 251 253 257 261 264 265 267 269 270 270 270 269 270 272 275 276 275 272 269 268 267 264 260 257 253 249 244 243 243 243 239 235 234 234 233 236 239 243 249 254 261 267 274 281 289 294 297 299 300 303 307 310 311 313 313 313 313 312 312 311 309 308 308 307 306 307
219 224 226 228 232 234 237 242 244 246 250 253 255 258 259 259 259 257 257 258 259 260 262 264 266 268 268 268 267 267 267 267 268 270 272 273 272 270 267 264 261 258 255 253 249 241 236 236 233 229 228 230 233 237 242 247 252 256 261 266 271 278 285 291 293 295 297 300 304 308 309 311 312 312 312 312 313 314 314 312 311 312 312 312 312
215 222 226 230 234 238 241 244 245 246 248 249 253 256 259 261 263 263 264 264 265 266 267 267 268 267 266 266 266 266 267 267 268 268 268 270 271 269 265 260 257 255 252 250 244 234 229 228 227 227 229 233 238 244 248 253 256 259 263 268 275 281 287 291 292 296 300 302 305 308 309 310 311 311 312 312 312 313 313 311 311 313 314 314 315
206 211 215 218 223 229 231 234 239 241 242 243 247 250 253 259 264 266 266 266 265 266 266 267 267 266 266 266 267 268 269 270 270 269 269 270 270 267 261 255 252 250 248 246 240 232 226 224 224 228 233 237 242 246 249 252 255 258 263 270 278 285 291 295 299 302 304 304 306 308 308 309 309 310 311 312 311 312 312 312 312 313 314 315 317
214 217 218 220 225 231 234 238 243 247 247 247 249 250 250 254 260 267 270 270 269 268 268 269 269 268 268 268 268 269 270 271 271 270 270 271 269 264 257 251 247 246 245 245 242 236 233 231 230 233 236 239 242 244 245 247 252 258 265 276 286 293 298 301 303 303 303 303 306 307 307 307 309 311 313 314 314 314 314 314 314 314 316 317 318